Location: Skalnate Pleso
(49.1889°N, 20.2450°E)
Time: 08:55:55
(UTC+01:00)

Cosmos 2173 Rocket - Pass Details

Date: 19 November 2019
Orbit: 944 x 1001 km, 83.0° (Epoch: 12 December)

Event Time Altitude Azimuth Distance (km) Brightness Sun altitude
Rises 05:18:46 0° 209° (SSW) 3,675 6.8 -15.4°
Reaches altitude 10° 05:21:26 10° 216° (SW) 2,722 6.1 -15.0°
Maximum altitude 05:27:20 44° 287° (WNW) 1,325 4.3 -14.1°
Drops below altitude 10° 05:33:13 10° 359° (N) 2,702 6.2 -13.1°
Sets 05:35:51 0° 6° (N) 3,645 6.9 -12.7°
